Time,TemperatureF,DewpointF,PressureIn,WindDirection,WindDirectionDegrees,WindSpeedMPH,WindSpeedGustMPH,Humidity,HourlyPrecipIn,Conditions,Clouds,dailyrainin,SoftwareType,DateUTC
2017-06-27 00:08:00,77.3,67.0,30.02,NW,324,2.0,3.0,71,0.00,,,0.00,weatherlink.com 1.10,2017-06-27 05:08:00,
2017-06-27 00:23:00,77.0,67.0,30.01,NNW,337,0.0,2.0,72,0.00,,,0.00,weatherlink.com 1.10,2017-06-27 05:23:00,
2017-06-27 00:38:00,76.6,67.0,30.01,NNW,337,1.0,1.0,72,0.00,,,0.00,weatherlink.com 1.10,2017-06-27 05:38:00,
2017-06-27 00:53:00,76.1,67.0,30.01,NNW,337,1.0,2.0,74,0.00,,,0.00,weatherlink.com 1.10,2017-06-27 05:53:00,
2017-06-27 01:08:00,75.5,67.0,30.00,NW,326,1.0,4.0,75,0.00,,,0.00,weatherlink.com 1.10,2017-06-27 06:08:00,
2017-06-27 01:23:00,75.1,67.0,30.00,North,355,1.0,6.0,75,0.00,,,0.00,weatherlink.com 1.10,2017-06-27 06:23:00,
2017-06-27 01:38:00,74.9,67.0,30.00,NW,322,0.0,3.0,76,0.00,,,0.00,weatherlink.com 1.10,2017-06-27 06:38:00,
2017-06-27 01:53:00,74.7,67.0,30.00,NNW,342,0.0,3.0,76,0.00,,,0.00,weatherlink.com 1.10,2017-06-27 06:53:00,
2017-06-27 02:08:00,74.5,67.0,30.00,NNE,30,1.0,3.0,77,0.00,,,0.00,weatherlink.com 1.10,2017-06-27 07:08:00,
2017-06-27 02:23:00,74.4,67.0,30.00,NNE,22,2.0,3.0,77,0.00,,,0.00,weatherlink.com 1.10,2017-06-27 07:23:00,
2017-06-27 02:38:00,74.6,67.0,30.00,NNE,31,2.0,3.0,77,0.00,,,0.00,weatherlink.com 1.10,2017-06-27 07:38:00,
2017-06-27 02:53:00,74.6,67.0,29.99,North,350,3.0,5.0,77,0.00,,,0.00,weatherlink.com 1.10,2017-06-27 07:53:00,
2017-06-27 03:08:00,74.8,67.0,30.00,North,5,1.0,5.0,77,0.00,,,0.00,weatherlink.com 1.10,2017-06-27 08:08:00,
2017-06-27 03:23:00,74.9,67.0,30.00,North,9,2.0,5.0,77,0.00,,,0.00,weatherlink.com 1.10,2017-06-27 08:23:00,
2017-06-27 03:38:00,74.8,67.0,29.99,NE,40,3.0,6.0,77,0.00,,,0.00,weatherlink.com 1.10,2017-06-27 08:38:00,
2017-06-27 03:53:00,75.0,67.0,29.99,NE,34,3.0,5.0,77,0.00,,,0.00,weatherlink.com 1.10,2017-06-27 08:53:00,
2017-06-27 04:08:00,75.2,68.0,29.99,NNE,13,3.0,6.0,77,0.00,,,0.00,weatherlink.com 1.10,2017-06-27 09:08:00,
2017-06-27 04:23:00,75.3,68.0,30.00,North,360,2.0,5.0,77,0.00,,,0.00,weatherlink.com 1.10,2017-06-27 09:23:00,
2017-06-27 04:38:00,75.2,68.0,30.00,NE,52,3.0,6.0,77,0.00,,,0.00,weatherlink.com 1.10,2017-06-27 09:38:00,
2017-06-27 04:53:00,75.2,68.0,30.00,NE,38,4.0,5.0,77,0.00,,,0.00,weatherlink.com 1.10,2017-06-27 09:53:00,
2017-06-27 05:08:00,75.1,68.0,30.00,NE,48,5.0,6.0,78,0.00,,,0.00,weatherlink.com 1.10,2017-06-27 10:08:00,
2017-06-27 05:23:00,74.9,68.0,30.01,North,5,1.0,4.0,78,0.00,,,0.00,weatherlink.com 1.10,2017-06-27 10:23:00,
2017-06-27 05:38:00,74.8,68.0,30.01,North,11,1.0,6.0,79,0.00,,,0.00,weatherlink.com 1.10,2017-06-27 10:38:00,
2017-06-27 05:53:00,74.7,68.0,30.01,NE,34,2.0,4.0,79,0.00,,,0.00,weatherlink.com 1.10,2017-06-27 10:53:00,
2017-06-27 06:08:00,74.6,68.0,30.02,NE,44,2.0,4.0,79,0.00,,,0.00,weatherlink.com 1.10,2017-06-27 11:08:00,
2017-06-27 06:23:00,74.6,68.0,30.01,NE,34,3.0,8.0,79,0.00,,,0.00,weatherlink.com 1.10,2017-06-27 11:23:00,
2017-06-27 06:38:00,74.9,68.0,30.01,NNE,32,1.0,4.0,79,0.00,,,0.00,weatherlink.com 1.10,2017-06-27 11:38:00,
2017-06-27 06:53:00,75.1,68.0,30.02,NNE,24,2.0,5.0,78,0.00,,,0.00,weatherlink.com 1.10,2017-06-27 11:53:00,
2017-06-27 07:09:00,75.6,68.0,30.02,North,9,3.0,6.0,78,0.00,,,0.00,weatherlink.com 1.10,2017-06-27 12:09:00,
2017-06-27 07:23:00,76.6,69.0,30.02,NE,48,4.0,6.0,77,0.00,,,0.00,weatherlink.com 1.10,2017-06-27 12:23:00,
2017-06-27 07:39:00,77.2,69.0,30.02,NE,48,2.0,3.0,76,0.00,,,0.00,weatherlink.com 1.10,2017-06-27 12:39:00,
2017-06-27 07:53:00,77.4,69.0,30.02,NE,49,1.0,5.0,76,0.00,,,0.00,weatherlink.com 1.10,2017-06-27 12:53:00,
2017-06-27 08:09:00,77.7,70.0,30.02,NE,50,2.0,4.0,76,0.00,,,0.00,weatherlink.com 1.10,2017-06-27 13:09:00,
2017-06-27 08:24:00,78.2,70.0,30.03,NE,36,0.0,6.0,76,0.00,,,0.00,weatherlink.com 1.10,2017-06-27 13:24:00,
2017-06-27 08:39:00,78.7,70.0,30.03,ENE,61,3.0,4.0,75,0.00,,,0.00,weatherlink.com 1.10,2017-06-27 13:39:00,
2017-06-27 08:54:00,79.3,71.0,30.03,NE,40,0.0,3.0,75,0.00,,,0.00,weatherlink.com 1.10,2017-06-27 13:54:00,
2017-06-27 09:09:00,79.5,71.0,30.02,NE,55,4.0,5.0,74,0.00,,,0.00,weatherlink.com 1.10,2017-06-27 14:09:00,
2017-06-27 09:24:00,79.9,71.0,30.02,ENE,60,0.0,4.0,74,0.00,,,0.00,weatherlink.com 1.10,2017-06-27 14:24:00,
2017-06-27 09:39:00,80.6,72.0,30.02,ENE,60,0.0,0.0,74,0.00,,,0.00,weatherlink.com 1.10,2017-06-27 14:39:00,
2017-06-27 09:54:00,81.5,72.0,30.03,ENE,60,0.0,0.0,73,0.00,,,0.00,weatherlink.com 1.10,2017-06-27 14:54:00,
2017-06-27 10:09:00,82.1,72.0,30.03,NNE,33,0.0,0.0,72,0.00,,,0.00,weatherlink.com 1.10,2017-06-27 15:09:00,
2017-06-27 10:24:00,81.9,72.0,30.02,ENE,62,3.0,4.0,72,0.00,,,0.00,weatherlink.com 1.10,2017-06-27 15:24:00,
2017-06-27 10:39:00,81.4,72.0,30.02,East,86,4.0,8.0,73,0.00,,,0.00,weatherlink.com 1.10,2017-06-27 15:39:00,
2017-06-27 10:54:00,81.6,73.0,30.02,South,180,2.0,4.0,74,0.00,,,0.00,weatherlink.com 1.10,2017-06-27 15:54:00,
2017-06-27 11:09:00,81.9,72.0,30.02,SE,140,2.0,4.0,73,0.00,,,0.00,weatherlink.com 1.10,2017-06-27 16:09:00,
2017-06-27 11:24:00,82.7,73.0,30.01,South,186,2.0,4.0,72,0.00,,,0.00,weatherlink.com 1.10,2017-06-27 16:24:00,
2017-06-27 11:39:00,82.5,73.0,30.01,South,178,4.0,6.0,72,0.00,,,0.00,weatherlink.com 1.10,2017-06-27 16:39:00,
2017-06-27 11:54:00,82.3,73.0,30.01,SSE,166,10.0,11.0,74,0.00,,,0.00,weatherlink.com 1.10,2017-06-27 16:54:00,
2017-06-27 12:09:00,81.9,73.0,30.01,South,172,8.0,10.0,74,0.00,,,0.00,weatherlink.com 1.10,2017-06-27 17:09:00,
2017-06-27 12:24:00,82.3,72.0,30.01,SSE,156,6.0,9.0,72,0.00,,,0.00,weatherlink.com 1.10,2017-06-27 17:24:00,
2017-06-27 12:39:00,82.9,72.0,30.01,SE,141,7.0,9.0,69,0.00,,,0.00,weatherlink.com 1.10,2017-06-27 17:39:00,
2017-06-27 12:54:00,83.1,71.0,30.00,SSE,155,7.0,10.0,68,0.00,,,0.00,weatherlink.com 1.10,2017-06-27 17:54:00,
2017-06-27 13:09:00,83.4,70.0,30.00,South,169,5.0,8.0,65,0.00,,,0.00,weatherlink.com 1.10,2017-06-27 18:09:00,
2017-06-27 13:24:00,83.7,70.0,30.00,SSE,150,6.0,8.0,63,0.00,,,0.00,weatherlink.com 1.10,2017-06-27 18:24:00,
2017-06-27 13:39:00,83.9,68.0,30.00,SE,128,7.0,8.0,60,0.00,,,0.00,weatherlink.com 1.10,2017-06-27 18:39:00,
2017-06-27 13:54:00,83.6,72.0,30.00,East,90,8.0,11.0,67,0.00,,,0.00,weatherlink.com 1.10,2017-06-27 18:54:00,
2017-06-27 14:09:00,83.0,71.0,30.00,East,97,9.0,13.0,67,0.00,,,0.00,weatherlink.com 1.10,2017-06-27 19:09:00,